Delta Virtual Airport Information Service

Indianapolis International Airport

ICAO: KIND Country: United States
Latitude: 39.7173 Longitude: -86.2946
Latest Arrival : SKW5438 (1B) (KIAD-KIND) Latest Departure : FDX1706 (3) (KIND-KORD)


WX CaptureLIVE
Data provided by noaa.gov | Fetched at 07:54:24

METAR : KIND 061254Z 31004KT 10SM FEW065 FEW250 M03/M07 A3035 RMK AO2 SLP286 T10281067

TAF : KIND 061120Z 0612/0718 03003KT P6SM SKC FM061700 33008KT P6SM SKC FM061800 30009KT P6SM SKC


Runway Data for KIND
Data provided by openaviationdata.com

Runway ID Mag Var Hdg Length Elevation Surface ILS Freq ILS Id ILS Slope
05L -2 46° 11197 ft 797 ft Concrete 111.75 IIND 3
05R -2 46° 9998 ft 797 ft Concrete 111.15 IOQV 3
14 -2 136° 7602 ft 797 ft Asphalt 110.5 IBJP 3
23L -2 226° 9998 ft 797 ft Concrete 111.15 IFVJ 3
23R -2 226° 11197 ft 797 ft Concrete 111.75 IUZK 3
32 -2 316° 7602 ft 797 ft Asphalt 110.5 ICOA 3

Indianapolis International Airport, United States
Use only for reference purposes



Not for navigational purposes.